Wind_Speed
38 36 31 35 33 24 27 26 24 20 20 22 22 24 27 28 29 30 29 28 31 28 25 23 23 22 21 17 14 16 15 13 15 15 14 16 20 23 24 25 28 32 35
35 35 32 33 34 28 24 24 19 20 20 22 22 21 24 25 28 29 28 28 28 25 24 22 20 21 19 17 16 16 16 15 15 15 15 18 20 23 25 24 28 30 33
32 29 33 31 32 32 29 20 21 21 23 21 19 19 19 22 26 28 27 28 25 24 25 23 20 18 19 20 20 21 20 20 21 21 21 19 19 19 20 21 23 24 25
29 28 31 30 28 32 27 24 26 24 22 22 18 20 21 26 27 27 26 27 26 26 25 22 19 20 19 22 22 23 24 25 26 24 24 22 20 19 18 17 15 16 17
26 28 27 24 26 30 27 24 24 26 23 25 22 22 24 27 28 29 28 28 27 25 24 23 20 21 22 23 24 26 26 28 29 29 26 25 21 19 20 16 12 10 10
20 25 24 28 26 28 25 30 29 28 29 30 32 30 30 27 27 30 29 28 28 27 25 25 25 25 24 25 24 27 28 29 28 28 28 23 20 19 15 13 12 11 10
19 21 25 28 28 28 29 33 34 36 31 30 33 34 33 34 33 30 32 28 28 29 28 26 24 25 26 26 24 24 27 29 29 28 26 24 21 20 17 15 14 14 12
20 20 23 27 25 26 31 31 31 34 36 33 36 38 37 35 34 34 34 28 26 29 29 27 25 26 27 27 25 22 24 26 28 29 27 26 22 21 19 18 15 16 17
19 17 18 25 26 26 27 30 33 35 37 37 37 36 36 35 39 35 34 32 27 26 29 27 26 28 27 29 29 26 23 23 26 26 26 25 25 23 23 22 21 19 19
26 17 15 16 20 29 36 36 38 35 36 38 39 36 39 35 38 38 35 34 35 30 28 27 26 29 29 28 30 31 27 25 25 25 27 28 26 25 25 27 26 26 24
31 25 19 17 17 20 24 26 28 30 32 36 35 28 31 35 34 34 34 36 36 34 30 30 29 29 30 30 30 32 32 29 27 28 27 26 25 27 29 31 32 31 31
36 34 32 30 24 24 27 28 27 28 29 29 31 31 35 36 38 34 36 36 33 31 31 31 31 30 32 32 33 31 34 33 31 30 30 29 28 29 29 28 29 30 36
40 38 35 36 35 34 35 33 34 34 33 33 30 29 28 28 30 29 28 30 32 30 30 33 32 31 32 33 34 34 32 34 34 34 34 33 32 32 33 33 32 31 33
39 39 39 39 38 39 39 39 38 39 39 40 36 31 30 29 29 29 28 29 32 32 31 31 34 32 30 35 35 35 35 36 36 34 33 33 34 36 37 38 39 39 39
39 37 36 36 38 41 39 39 40 43 42 38 40 42 41 36 30 30 30 30 33 31 30 30 31 34 34 33 36 37 39 39 39 38 37 37 40 40 42 43 44 45 44
33 34 34 33 33 31 27 33 36 40 40 44 44 43 43 43 42 41 38 38 37 37 36 32 32 35 36 36 37 36 36 38 41 42 43 43 43 43 45 47 48 49 52
36 34 36 38 35 37 37 34 32 31 30 33 37 47 47 47 46 45 45 46 43 44 38 35 34 35 36 37 36 36 37 35 34 37 38 39 39 40 43 47 48 47 51
46 49 47 46 42 39 38 41 39 39 36 40 38 34 49 51 50 51 50 49 43 47 42 35 39 43 37 34 35 35 36 38 39 39 40 39 38 36 37 40 41 42 45
54 55 55 55 57 52 47 48 45 47 45 46 44 43 38 50 53 54 52 51 50 47 43 37 44 48 38 39 37 40 39 38 41 44 45 45 43 39 40 42 43 42 44
53 57 60 61 62 60 57 57 56 53 54 58 51 47 46 42 51 47 51 55 53 50 48 44 49 49 44 42 39 42 44 46 45 45 49 50 46 44 46 47 48 47 47
60 60 62 64 66 67 64 63 63 61 58 59 62 55 50 47 45 47 50 55 55 56 55 55 54 51 50 46 45 43 43 47 56 51 49 51 52 47 49 50 49 52 53
58 62 67 65 68 68 67 67 63 65 65 63 60 60 53 54 56 45 51 54 55 57 54 55 56 56 52 52 57 52 58 63 56 53 52 53 54 50 49 51 53 54 55
61 65 61 63 65 63 69 71 69 69 66 67 67 59 52 52 56 55 54 60 62 59 54 56 57 54 56 55 55 56 56 54 57 50 48 47 48 48 45 45 47 54 57
62 61 68 64 64 71 69 65 66 70 64 71 66 64 65 63 57 57 58 65 63 63 60 59 63 63 63 51 51 50 51 51 45 50 52 48 50 50 50 49 51 49 58
73 81 74 82 79 79 84 75 78 79 74 64 69 68 71 67 66 66 61 62 70 68 69 65 66 66 64 60 60 56 58 52 54 54 59 54 51 57 57 59 55 51 53
81 89 83 82 86 90 91 84 92 83 81 75 76 77 75 80 79 78 70 70 64 69 66 70 73 69 64 63 73 64 61 61 57 64 62 64 69 64 60 59 56 57 58
Wind_Direction
285 275 263 263 267 266 271 276 270 276 280 280 276 275 278 278 279 280 283 283 289 288 283 284 277 269 271 272 255 239 228 225 232 248 257 267 268 267 268 267 265 262 260
282 275 258 257 260 258 275 271 271 280 288 290 283 284 282 279 277 277 276 277 283 280 279 285 281 269 265 260 254 230 232 240 247 253 267 278 279 273 269 270 269 265 262
279 270 267 259 259 261 268 260 266 283 284 281 281 283 293 296 293 284 276 273 274 277 276 281 282 268 261 263 252 237 236 246 252 264 269 279 284 283 281 279 274 268 263
285 264 261 256 257 262 265 259 266 279 285 287 278 281 288 290 297 299 287 279 276 273 269 274 280 270 259 258 253 249 244 249 259 269 277 280 281 282 284 286 284 272 264
282 265 259 256 262 264 260 274 274 289 278 278 279 285 288 289 298 299 297 285 278 273 274 275 274 273 265 259 259 258 259 260 265 271 274 279 276 272 276 286 283 278 276
283 261 263 251 255 259 270 263 265 275 275 271 279 287 289 289 295 298 293 296 281 272 272 275 275 273 271 265 260 261 262 260 266 269 269 269 268 265 275 280 274 274 277
301 274 264 260 254 263 267 277 271 262 270 274 278 283 284 290 286 296 297 290 285 274 269 270 272 268 268 263 261 262 265 264 260 262 260 260 260 259 264 271 271 268 269
326 283 273 265 272 269 263 270 273 267 266 270 274 279 280 289 291 293 293 290 289 280 274 271 265 268 268 259 258 263 267 267 265 266 259 257 257 258 262 265 268 266 260
330 315 292 263 263 267 270 267 268 273 276 277 275 273 285 280 287 285 289 287 287 284 272 267 262 263 269 263 259 261 265 267 265 264 262 260 254 258 259 264 263 264 260
315 313 301 286 274 270 266 267 270 271 271 274 271 271 280 281 281 284 285 288 289 287 274 266 264 260 264 265 262 258 264 265 268 267 263 260 258 259 261 262 261 261 263
302 297 294 295 289 283 283 279 274 275 278 274 274 274 273 279 278 281 282 286 286 284 280 267 261 260 260 260 260 259 259 261 262 268 272 276 274 267 265 263 259 261 261
293 293 291 285 277 282 288 289 287 285 282 280 282 276 272 267 276 279 284 284 283 282 277 273 265 263 258 257 259 259 255 257 260 265 270 272 277 278 276 277 278 273 263
294 295 289 288 293 291 292 288 283 282 283 283 278 279 280 282 283 286 287 287 285 283 279 277 270 262 262 255 256 257 259 257 260 260 263 269 273 276 275 278 279 277 280
291 295 299 298 293 293 294 294 291 292 291 283 278 274 274 273 274 275 280 285 283 285 287 281 272 266 266 260 256 257 253 256 256 258 264 271 274 275 277 278 280 282 283
295 296 293 296 299 302 296 294 294 291 285 285 285 281 271 270 271 272 273 278 282 283 285 285 275 272 271 266 262 262 254 254 256 258 261 265 267 269 271 273 276 278 279
297 300 304 305 302 300 301 298 298 299 291 286 278 280 282 281 275 270 270 272 273 278 284 280 269 267 271 270 266 264 259 255 256 260 265 268 267 268 269 270 274 276 278
295 298 290 295 293 289 292 288 297 296 295 305 291 276 273 274 275 276 274 271 270 274 277 277 270 269 272 273 269 267 265 260 257 262 263 266 269 273 275 275 277 280 278
292 290 296 291 298 298 294 295 295 296 290 297 294 297 270 267 270 272 273 276 268 275 269 272 280 272 269 275 273 267 269 269 268 271 269 268 271 276 276 279 280 280 280
297 295 297 295 299 297 294 292 296 298 295 298 294 298 281 264 265 267 270 270 271 267 266 261 267 267 271 273 264 266 264 267 271 272 273 274 276 280 281 284 284 282 280
292 295 296 297 298 297 295 297 297 293 295 297 290 291 294 287 265 268 274 272 269 267 263 250 261 264 273 270 264 259 268 273 269 275 273 279 279 281 286 285 285 285 286
293 295 297 297 296 295 293 294 294 293 291 294 294 290 288 288 279 264 261 268 270 270 263 262 260 261 264 270 263 261 266 271 279 281 277 279 279 280 282 286 286 283 284
291 294 296 296 297 294 293 297 296 294 289 289 287 288 286 286 280 264 256 254 261 267 267 267 268 268 268 267 268 268 262 264 275 276 279 279 279 281 281 282 285 285 283
292 296 295 293 299 296 294 292 294 295 289 286 285 281 281 282 278 269 255 248 249 250 256 259 266 267 269 274 273 269 269 267 272 276 271 269 273 276 278 284 292 295 284
297 301 305 303 302 306 305 292 295 300 287 280 282 279 283 282 275 275 265 252 248 247 243 247 255 259 262 262 264 269 269 268 267 275 273 273 275 274 273 280 292 295 287
307 307 303 302 302 304 308 304 295 298 300 286 278 276 280 284 289 272 270 256 250 248 251 251 250 252 255 260 264 265 273 268 270 275 277 275 273 277 274 279 286 276 281
298 305 300 299 300 300 304 303 303 296 295 282 280 280 279 283 287 287 279 264 253 249 249 243 244 245 248 243 260 254 267 274 273 272 271 276 267 269 276 279 280 281 278
Height
10838 10836 10836 10834 10833 10834 10832 10830 10830 10829 10829 10829 10829 10828 10828 10828 10826 10824 10822 10821 10819 10818 10817 10816 10814 10813 10812 10810 10808 10807 10807 10807 10808 10808 10808 10808 10807 10806 10805 10805 10804 10803 10802
10829 10828 10827 10827 10826 10828 10826 10825 10824 10824 10825 10825 10825 10824 10823 10822 10821 10819 10817 10815 10814 10813 10813 10812 10810 10809 10808 10807 10806 10805 10805 10805 10805 10805 10805 10804 10803 10802 10801 10799 10798 10797 10796
10820 10819 10818 10820 10820 10820 10822 10820 10819 10819 10820 10820 10820 10820 10819 10817 10815 10813 10812 10810 10809 10808 10808 10808 10807 10805 10804 10803 10802 10803 10802 10802 10802 10802 10802 10800 10800 10798 10796 10794 10793 10792 10791
10813 10812 10811 10812 10813 10813 10816 10816 10815 10815 10815 10815 10815 10815 10814 10813 10811 10809 10806 10805 10804 10804 10804 10803 10803 10801 10800 10799 10799 10799 10799 10798 10798 10798 10798 10797 10796 10794 10793 10791 10789 10788 10787
10808 10806 10805 10807 10808 10809 10809 10811 10811 10811 10810 10810 10810 10810 10809 10807 10805 10803 10801 10799 10798 10798 10798 10799 10798 10797 10796 10794 10794 10794 10795 10795 10795 10794 10795 10793 10792 10791 10789 10788 10786 10785 10785
10803 10802 10801 10801 10803 10802 10803 10805 10804 10805 10805 10806 10805 10805 10803 10801 10799 10797 10794 10793 10792 10792 10792 10793 10794 10792 10791 10790 10789 10789 10789 10789 10790 10790 10790 10789 10788 10787 10786 10785 10784 10784 10783
10800 10797 10796 10795 10796 10797 10797 10797 10798 10800 10800 10799 10799 10798 10797 10796 10794 10792 10789 10787 10785 10785 10786 10786 10787 10786 10785 10785 10784 10784 10784 10784 10785 10785 10785 10785 10784 10783 10783 10782 10782 10782 10782
10796 10794 10792 10791 10792 10793 10793 10793 10792 10792 10792 10793 10791 10791 10791 10789 10787 10786 10782 10780 10779 10778 10779 10779 10780 10780 10779 10780 10780 10779 10779 10779 10780 10780 10780 10780 10780 10780 10780 10779 10779 10779 10779
10793 10791 10791 10790 10789 10789 10788 10786 10786 10786 10785 10785 10785 10785 10784 10783 10781 10780 10777 10773 10772 10772 10772 10772 10773 10774 10774 10774 10774 10774 10774 10774 10774 10775 10775 10776 10776 10776 10776 10776 10776 10776 10776
10791 10789 10788 10787 10786 10784 10784 10782 10781 10780 10779 10779 10779 10778 10777 10776 10774 10773 10771 10769 10767 10767 10766 10766 10766 10767 10768 10768 10768 10768 10769 10770 10769 10769 10770 10771 10771 10772 10771 10772 10772 10771 10772
10785 10785 10785 10784 10782 10781 10779 10777 10775 10773 10772 10771 10770 10772 10771 10769 10767 10766 10764 10762 10761 10760 10760 10760 10759 10760 10760 10760 10761 10762 10763 10764 10764 10763 10764 10765 10765 10766 10766 10767 10766 10766 10766
10780 10779 10777 10777 10777 10776 10775 10773 10770 10768 10766 10765 10764 10763 10764 10763 10760 10759 10757 10755 10754 10754 10753 10753 10754 10753 10752 10752 10753 10754 10755 10756 10757 10757 10758 10759 10759 10759 10760 10760 10761 10760 10760
10773 10772 10771 10770 10769 10769 10767 10765 10763 10762 10760 10759 10757 10756 10756 10756 10754 10752 10751 10749 10747 10747 10745 10745 10745 10746 10745 10745 10745 10746 10747 10748 10749 10750 10751 10752 10753 10753 10753 10753 10754 10754 10754
10766 10764 10763 10762 10760 10759 10758 10756 10754 10752 10751 10750 10749 10748 10748 10747 10747 10745 10744 10743 10740 10740 10739 10738 10737 10737 10738 10738 10738 10737 10738 10740 10740 10741 10742 10744 10746 10746 10746 10746 10746 10746 10746
10758 10757 10755 10754 10751 10747 10746 10746 10744 10742 10740 10739 10739 10739 10739 10739 10738 10738 10737 10735 10734 10732 10731 10731 10729 10730 10730 10731 10731 10731 10730 10731 10732 10733 10733 10734 10736 10737 10737 10738 10738 10738 10737
10749 10747 10746 10745 10743 10741 10737 10736 10734 10730 10730 10728 10728 10728 10729 10729 10730 10730 10728 10726 10724 10723 10723 10723 10722 10721 10721 10722 10723 10723 10723 10723 10723 10724 10725 10726 10726 10728 10728 10729 10729 10728 10728
10740 10739 10738 10737 10735 10733 10732 10729 10726 10723 10722 10719 10717 10716 10715 10718 10719 10718 10718 10717 10715 10714 10714 10713 10714 10713 10713 10713 10714 10715 10716 10715 10714 10715 10716 10716 10717 10719 10719 10720 10719 10718 10717
10729 10728 10727 10727 10725 10723 10722 10718 10716 10713 10710 10709 10706 10705 10703 10703 10703 10706 10707 10706 10705 10702 10703 10702 10703 10704 10703 10704 10705 10706 10707 10707 10706 10706 10706 10706 10707 10709 10709 10710 10709 10708 10706
10716 10715 10713 10712 10712 10711 10710 10708 10706 10702 10699 10696 10693 10692 10691 10689 10689 10690 10692 10692 10692 10693 10694 10692 10691 10691 10692 10693 10695 10696 10696 10697 10698 10697 10696 10697 10697 10698 10698 10699 10699 10697 10696
10708 10704 10700 10699 10698 10697 10694 10693 10692 10691 10687 10684 10682 10681 10680 10677 10677 10677 10676 10677 10679 10681 10681 10680 10681 10680 10681 10682 10682 10683 10684 10685 10685 10687 10686 10686 10685 10687 10688 10687 10687 10686 10685
10698 10694 10689 10684 10682 10681 10680 10679 10678 10676 10674 10672 10667 10666 10665 10664 10663 10664 10664 10664 10664 10666 10667 10667 10669 10670 10670 10670 10670 10671 10671 10671 10672 10674 10673 10673 10673 10674 10675 10675 10675 10674 10673
10686 10683 10678 10674 10669 10665 10662 10661 10660 10658 10658 10657 10655 10653 10650 10646 10645 10646 10647 10650 10651 10651 10652 10653 10654 10657 10659 10660 10660 10659 10660 10660 10662 10661 10660 10660 10659 10660 10661 10662 10662 10661 10660
10672 10668 10663 10660 10655 10650 10646 10644 10641 10639 10638 10637 10637 10636 10635 10631 10628 10628 10627 10629 10632 10636 10641 10639 10641 10641 10641 10644 10644 10646 10649 10651 10649 10652 10648 10645 10646 10646 10647 10648 10649 10648 10646
10657 10650 10645 10640 10636 10633 10631 10626 10624 10621 10618 10616 10617 10615 10613 10614 10612 10610 10608 10607 10609 10614 10620 10624 10624 10626 10624 10632 10627 10630 10630 10633 10636 10638 10635 10634 10633 10632 10632 10634 10635 10634 10633
10635 10631 10624 10619 10614 10609 10606 10603 10600 10596 10595 10594 10595 10595 10594 10592 10592 10590 10588 10586 10587 10592 10598 10603 10605 10607 10612 10616 10618 10623 10618 10619 10622 10622 10622 10619 10616 10616 10617 10618 10620 10619 10617
10611 10607 10602 10597 10592 10588 10583 10578 10573 10568 10566 10566 10566 10567 10568 10568 10567 10566 10567 10566 10567 10569 10573 10575 10578 10586 10590 10588 10605 10606 10607 10608 10606 10609 10609 10607 10601 10599 10600 10601 10602 10602 10602